Date String (YYYY-MM-DD hh:mm:ss) UTC,Instrument flags,absolute air pressure of the measurement (hPa),sample flow rate (lpm),inlet stack bypass flow (lpm),air temperature of the measurement (°C),ambient temperature measured by the external sensor (°C),aerosol sample conditioner tube jacket temperature (°C),OPC LED temperature (°C),internal box temperature (°C),relative humidity of the measurement (%),span deviation,mass concentration of particles derived from Lorenz-Mie calculation of OPC scattering (μg/m³),mass concentration of particles derived from Lorenz-Mie calculation of OPC scattering (μg/m³),mass concentration of particles derived from Lorenz-Mie calculation of OPC scattering (μg/m³)
DateTimeUTC,F1_M11,P_M11,Q1_M11,Q2_M11,T1_M11,T2_M11,T3_M11,T4_M11,T5_M11,U1_M11,ZSPAN_M11,X0_M11,X2_M11,X1_M11
2024-05-23 16:00:00,SystemResetWarning,0819.1,4.99,000.00,029.0,028.2,000.0,037.2,030.6,017.4,0000.0,0015.70,0004.18,0002.98
2024-05-23 16:01:00,SystemResetWarning,0819.0,5.02,000.00,029.0,028.2,000.0,037.2,030.6,016.5,0000.0,0014.37,0004.14,0002.99
2024-05-23 16:02:00,SystemResetWarning,0819.0,5.01,000.00,029.0,028.3,000.0,037.2,030.6,016.8,0000.0,0014.11,0004.16,0003.00
2024-05-23 16:03:00,SystemResetWarning,0819.0,5.00,000.00,029.0,028.3,000.0,037.2,030.7,016.2,0000.0,0014.15,0004.22,0002.99
2024-05-23 16:04:00,SystemResetWarning,0819.0,5.00,000.00,029.0,028.3,000.0,037.2,030.7,015.6,0000.0,0013.80,0004.21,0003.00
2024-05-23 16:05:00,SystemResetWarning,0819.0,5.00,000.00,029.0,028.3,000.0,037.2,030.7,015.3,0000.0,0014.19,0004.24,0003.00
2024-05-23 16:06:00,SystemResetWarning,0819.0,5.00,000.00,029.0,028.3,000.0,037.2,030.7,014.1,0000.0,0013.33,0004.20,0002.99
2024-05-23 16:07:00,SystemResetWarning,0819.0,5.01,000.00,029.0,028.3,000.0,037.2,030.7,015.4,0000.0,0013.28,0004.15,0002.98
2024-05-23 16:08:00,SystemResetWarning,0819.0,5.01,000.00,029.1,028.4,000.0,037.2,030.7,016.9,0000.0,0013.12,0004.14,0002.98
2024-05-23 16:09:00,SystemResetWarning,0819.0,4.99,000.00,029.1,028.4,000.0,037.3,030.8,017.3,0000.0,0012.75,0004.12,0002.99
2024-05-23 16:10:00,SystemResetWarning,0819.0,5.00,000.00,029.1,028.4,000.0,037.3,030.8,016.3,0000.0,0013.29,0004.12,0002.98
2024-05-23 16:11:00,SystemResetWarning,0819.0,5.00,000.00,029.1,028.4,000.0,037.3,030.8,015.7,0000.0,0013.80,0004.15,0002.99
2024-05-23 16:12:00,SystemResetWarning,0819.0,5.01,000.00,029.1,028.4,000.0,037.3,030.8,016.4,0000.0,0014.14,0004.13,0002.98
2024-05-23 16:13:00,SystemResetWarning,0819.0,5.01,000.00,029.1,028.4,000.0,037.3,030.8,016.1,0000.0,0014.72,0004.11,0002.96
2024-05-23 16:14:00,SystemResetWarning,0819.0,4.99,000.00,029.1,028.4,000.0,037.4,030.8,016.5,0000.0,0016.41,0004.04,0002.96
2024-05-23 16:15:00,SystemResetWarning,0819.0,5.00,000.00,029.2,028.5,000.0,037.4,030.8,016.7,0000.0,0017.45,0004.05,0002.98
2024-05-23 16:16:00,SystemResetWarning,0819.0,5.00,000.00,029.2,028.5,000.0,037.4,030.8,017.1,0000.0,0017.54,0004.02,0002.98
2024-05-23 16:17:00,SystemResetWarning,0818.9,5.00,000.00,029.2,028.5,000.0,037.4,030.8,017.0,0000.0,0017.98,0004.06,0002.98
2024-05-23 16:18:00,SystemResetWarning,0819.3,4.99,000.00,029.2,028.5,000.0,037.4,030.9,016.8,0000.0,0018.62,0004.09,0003.00
2024-05-23 16:19:00,SystemResetWarning,0818.9,5.00,000.00,029.2,028.5,000.0,037.4,030.9,016.0,0000.0,0017.56,0004.10,0003.01
2024-05-23 16:20:00,SystemResetWarning,0819.1,5.02,000.00,029.2,028.5,000.0,037.4,030.9,015.3,0000.0,0017.16,0004.09,0003.02
2024-05-23 16:21:00,SystemResetWarning,0819.0,5.00,000.00,029.2,028.5,000.0,037.4,030.9,016.1,0000.0,0016.79,0004.16,0003.03
2024-05-23 16:22:00,SystemResetWarning,0819.1,5.00,000.00,029.3,028.6,000.0,037.5,030.9,016.5,0000.0,0016.94,0004.15,0003.03
2024-05-23 16:23:00,SystemResetWarning,0819.0,4.99,000.00,029.3,028.6,000.0,037.5,030.9,016.1,0000.0,0016.76,0004.17,0003.04
2024-05-23 16:24:00,SystemResetWarning,0819.0,5.00,000.00,029.3,028.6,000.0,037.5,031.0,016.5,0000.0,0016.54,0004.15,0003.05
2024-05-23 16:25:00,SystemResetWarning,0819.0,5.00,000.00,029.3,028.6,000.0,037.5,031.0,016.8,0000.0,0015.10,0004.18,0003.05
2024-05-23 16:26:00,SystemResetWarning,0819.2,5.01,000.00,029.3,028.6,000.0,037.5,031.0,017.1,0000.0,0014.98,0004.19,0003.04
2024-05-23 16:27:00,SystemResetWarning,0819.3,5.01,000.00,029.3,028.6,000.0,037.5,031.0,017.6,0000.0,0014.09,0004.21,0003.05
2024-05-23 16:28:00,SystemResetWarning,0819.0,5.01,000.00,029.3,028.7,000.0,037.5,031.0,017.4,0000.0,0015.02,0004.21,0003.06
2024-05-23 16:29:00,SystemResetWarning,0819.0,4.98,000.00,029.3,028.7,000.0,037.5,031.1,017.1,0000.0,0015.70,0004.22,0003.07
2024-05-23 16:30:00,SystemResetWarning,0819.0,5.01,000.00,029.4,028.7,000.0,037.6,031.1,016.8,0000.0,0016.64,0004.20,0003.06
2024-05-23 16:31:00,SystemResetWarning,0819.0,5.01,000.00,029.4,028.7,000.0,037.6,031.0,013.9,0000.0,0018.09,0004.27,0003.08
2024-05-23 16:32:00,SystemResetWarning,0819.0,4.99,000.00,029.4,028.7,000.0,037.6,031.1,011.1,0000.0,0017.78,0004.23,0003.09
2024-05-23 16:33:00,SystemResetWarning,0818.8,5.00,000.00,029.4,028.7,000.0,037.6,031.1,014.9,0000.0,0017.90,0004.25,0003.09
2024-05-23 16:34:00,SystemResetWarning,0818.8,5.00,000.00,029.4,028.8,000.0,037.6,031.1,016.0,0000.0,0018.51,0004.31,0003.10
2024-05-23 16:35:00,SystemResetWarning,0818.7,5.00,000.00,029.4,028.8,000.0,037.6,031.1,016.0,0000.0,0018.05,0004.34,0003.10
2024-05-23 16:36:00,SystemResetWarning,0818.8,5.00,000.00,029.5,028.8,000.0,037.7,031.2,013.8,0000.0,0018.88,0004.34,0003.11
2024-05-23 16:37:00,SystemResetWarning,0818.8,5.00,000.00,029.5,028.8,000.0,037.7,031.2,011.7,0000.0,0018.43,0004.33,0003.11
2024-05-23 16:38:00,SystemResetWarning,0818.7,4.99,000.00,029.5,028.8,000.0,037.7,031.2,011.4,0000.0,0018.45,0004.39,0003.12
2024-05-23 16:39:00,SystemResetWarning,0818.7,5.00,000.00,029.5,028.9,000.0,037.7,031.2,013.5,0000.0,0017.89,0004.45,0003.12
2024-05-23 16:40:00,SystemResetWarning,0818.7,5.01,000.00,029.5,028.9,000.0,037.7,031.2,014.7,0000.0,0016.40,0004.50,0003.12
2024-05-23 16:41:00,SystemResetWarning,0818.7,5.01,000.00,029.5,028.9,000.0,037.7,031.2,015.3,0000.0,0015.65,0004.50,0003.11
2024-05-23 16:42:00,SystemResetWarning,0818.8,4.99,000.00,029.6,028.9,000.0,037.7,031.3,015.6,0000.0,0014.15,0004.46,0003.11
2024-05-23 16:43:00,SystemResetWarning,0818.8,4.99,000.00,029.6,028.9,000.0,037.8,031.2,016.4,0000.0,0014.26,0004.46,0003.11
2024-05-23 16:44:00,SystemResetWarning,0818.8,5.00,000.00,029.6,028.9,000.0,037.8,031.3,015.3,0000.0,0014.17,0004.46,0003.11
2024-05-23 16:45:00,SystemResetWarning,0818.7,5.00,000.00,029.6,029.0,000.0,037.8,031.3,015.5,0000.0,0014.40,0004.46,0003.12
2024-05-23 16:46:00,SystemResetWarning,0818.7,5.02,000.00,029.6,029.0,000.0,037.8,031.3,015.1,0000.0,0015.10,0004.51,0003.12
2024-05-23 16:47:00,SystemResetWarning,0818.7,5.00,000.00,029.6,029.0,000.0,037.8,031.3,014.6,0000.0,0014.18,0004.54,0003.11
2024-05-23 16:48:00,SystemResetWarning,0818.6,5.00,000.00,029.7,029.0,000.0,037.9,031.3,014.9,0000.0,0014.45,0004.55,0003.12
2024-05-23 16:49:00,SystemResetWarning,0818.6,5.00,000.00,029.7,029.0,000.0,037.9,031.3,015.1,0000.0,0016.61,0004.55,0003.12
2024-05-23 16:50:00,SystemResetWarning,0818.6,5.00,000.00,029.7,029.0,000.0,037.9,031.4,015.3,0000.0,0017.00,0004.51,0003.11
2024-05-23 16:51:00,SystemResetWarning,0818.7,5.00,000.00,029.7,029.0,000.0,037.9,031.4,015.0,0000.0,0016.70,0004.50,0003.12
2024-05-23 16:52:00,SystemResetWarning,0818.7,5.00,000.00,029.7,029.1,000.0,037.9,031.4,014.7,0000.0,0016.75,0004.50,0003.14
2024-05-23 16:53:00,SystemResetWarning,0818.7,5.00,000.00,029.7,029.1,000.0,037.9,031.4,015.1,0000.0,0017.87,0004.53,0003.15
2024-05-23 16:54:00,SystemResetWarning,0818.7,4.99,000.00,029.8,029.1,000.0,037.9,031.4,015.3,0000.0,0018.53,0004.54,0003.14
2024-05-23 16:55:00,SystemResetWarning,0818.6,5.00,000.00,029.8,029.1,000.0,037.9,031.4,015.4,0000.0,0018.59,0004.62,0003.15
2024-05-23 16:56:00,SystemResetWarning,0818.6,5.02,000.00,029.8,029.1,000.0,038.0,031.4,014.7,0000.0,0017.88,0004.67,0003.17
2024-05-23 16:57:00,SystemResetWarning,0818.6,5.00,000.00,029.8,029.1,000.0,038.0,031.5,012.2,0000.0,0017.56,0004.60,0003.17
2024-05-23 16:58:00,SystemResetWarning,0818.6,4.98,000.00,029.8,029.2,000.0,038.0,031.5,012.0,0000.0,0018.31,0004.57,0003.18
2024-05-23 16:59:00,SystemResetWarning,0818.6,5.01,000.00,029.8,029.2,000.0,038.0,031.5,009.5,0000.0,0018.33,0004.61,0003.19
